Temperature
25 25 24 24 22 20 21 22 23 22 21 21 21 20 20 19 19 18 18 18 18 18 18 18 19 19 19 19 19 19 19 19 19 19 19 19 18 18 18 18 18 18 18 18 18 18 18 18 18
26 25 25 24 21 20 21 22 22 22 22 22 21 20 19 18 18 18 18 18 18 18 18 18 18 19 19 19 19 19 19 19 19 19 19 18 18 18 18 18 18 18 18 18 18 18 18 18 18
26 26 25 21 21 21 22 22 22 23 23 22 21 20 19 18 18 19 19 19 19 19 19 18 19 19 19 19 19 19 19 18 18 18 18 18 18 18 18 18 18 18 18 18 18 18 18 18 17
26 26 24 21 22 23 23 23 23 23 22 22 21 20 19 19 19 19 19 19 19 19 19 18 19 19 19 19 19 19 18 18 18 18 18 18 18 18 18 18 18 18 18 18 18 18 17 17 17
27 26 21 21 23 23 23 24 23 22 22 21 20 19 18 19 19 19 19 19 19 19 19 19 19 19 19 19 18 18 18 18 18 18 18 18 18 18 18 18 18 18 18 18 17 17 17 17 17
27 22 21 22 23 24 24 24 23 22 21 21 20 19 18 19 19 19 19 19 19 19 19 19 19 19 19 19 18 18 18 18 18 18 18 18 18 18 18 18 18 18 18 18 18 17 17 17 17
25 21 22 23 23 24 24 24 23 22 22 21 20 18 18 19 19 19 19 19 19 19 19 19 19 19 19 18 18 18 18 18 18 18 18 18 18 18 18 18 18 18 18 18 18 17 17 17 17
27 21 23 23 23 24 24 24 23 23 22 22 21 19 18 19 19 19 19 19 19 19 19 19 19 19 19 18 18 18 18 18 18 18 18 18 18 18 18 18 18 18 18 17 17 17 17 17 17
27 21 22 23 23 24 24 24 24 23 22 22 22 21 21 20 19 19 19 19 19 19 19 19 19 19 19 18 18 18 18 18 18 18 18 18 18 18 18 18 18 18 18 17 17 17 17 17 17
26 22 24 24 24 24 24 24 24 23 22 21 21 21 20 20 19 19 19 19 19 19 19 19 19 19 19 19 19 19 18 18 18 18 18 18 18 18 18 18 18 18 17 17 17 17 17 17 17
25 24 25 25 25 25 24 24 24 23 21 21 21 21 20 20 19 20 20 20 20 20 19 19 19 19 19 19 19 19 18 18 18 18 18 18 18 18 18 18 18 18 17 17 17 17 17 17 17
25 25 26 26 26 25 25 24 24 23 23 24 23 22 21 20 20 20 20 20 20 20 20 19 19 19 19 19 19 19 19 18 18 18 18 18 18 18 18 18 18 18 17 17 17 17 17 17 17
26 26 26 26 26 25 25 24 24 23 24 23 22 22 21 21 21 20 20 20 20 20 20 20 19 19 19 19 19 19 19 18 18 18 18 18 18 18 18 18 18 18 18 17 17 17 17 17 17
25 25 25 26 26 25 24 24 24 23 23 22 21 21 21 21 21 21 20 20 20 20 20 20 20 19 19 19 19 19 19 18 18 18 18 18 18 18 18 18 18 18 18 18 17 17 17 17 17
25 24 24 25 25 25 25 24 23 23 23 22 21 21 21 21 21 21 21 21 21 21 20 20 20 19 19 19 19 19 19 18 18 18 18 18 18 18 18 18 18 18 18 18 17 17 17 17 17
24 24 24 25 24 24 24 23 23 23 22 21 21 20 20 21 21 21 21 21 21 21 20 20 20 19 19 19 19 19 18 18 18 18 18 18 18 18 18 18 18 18 18 17 17 17 17 17 17
22 23 24 25 24 24 24 23 22 22 22 21 21 21 21 21 21 21 21 21 21 21 20 20 20 20 19 19 19 19 18 18 18 18 18 18 18 18 18 18 18 18 18 17 17 17 17 17 17
23 24 24 24 24 24 23 23 22 22 22 21 21 21 21 21 22 22 21 21 21 21 20 20 20 20 19 19 19 19 18 18 18 18 18 18 18 18 18 18 18 18 18 17 17 17 17 17 17
23 24 24 24 24 24 23 22 22 21 22 21 21 21 21 22 22 22 21 21 21 21 21 20 20 20 20 19 19 19 19 19 19 18 18 18 18 18 18 18 18 18 18 17 17 17 17 17 17
24 24 24 23 24 24 23 22 22 21 21 22 22 22 22 22 22 22 22 21 21 21 21 21 21 20 20 20 19 19 19 19 19 19 18 18 18 18 18 18 18 18 18 17 17 17 17 17 17
23 23 24 24 23 23 23 22 22 22 22 22 22 22 22 23 23 23 22 22 22 21 21 21 21 20 20 20 19 19 19 19 19 19 19 19 18 18 18 18 18 18 18 18 18 17 17 17 17
23 23 24 24 23 21 23 22 22 21 21 21 22 23 23 23 23 23 23 22 22 22 22 21 21 21 20 20 19 19 19 19 19 19 19 19 18 18 18 18 18 18 18 18 18 17 17 17 17
23 24 23 23 22 21 21 22 21 21 21 21 22 23 23 23 24 24 24 23 23 22 22 21 21 21 20 20 20 19 19 19 19 19 19 19 19 18 18 18 18 18 18 18 17 17 17 17 17
23 22 20 18 19 21 21 21 21 20 21 22 22 23 23 24 24 24 24 23 23 22 22 22 21 21 20 20 20 20 20 19 19 19 19 19 19 18 18 18 18 18 18 18 17 17 17 17 17
22 20 20 21 19 20 20 21 20 21 21 22 22 23 24 24 24 24 24 23 23 22 22 22 22 21 21 20 20 20 19 19 19 19 19 19 19 19 19 18 18 18 18 18 17 17 17 17 17
21 20 20 21 20 20 20 20 21 22 22 23 23 23 24 24 24 24 24 24 23 23 22 22 22 21 21 20 20 20 19 19 19 19 19 19 19 19 18 18 18 18 18 18 17 17 17 17 17
21 20 19 18 19 20 20 20 21 22 21 21 22 22 23 24 24 24 24 24 23 23 23 22 22 21 21 21 20 20 20 19 19 19 19 18 18 18 18 18 18 18 18 17 17 17 17 17 17
20 18 17 18 19 20 21 21 21 22 22 21 20 21 23 24 24 24 24 24 23 23 23 22 22 21 21 21 20 20 20 19 19 19 19 18 18 18 18 18 18 18 17 17 17 17 17 17 17
20 19 17 16 18 19 21 21 21 21 21 20 20 21 22 23 23 23 23 23 23 22 22 22 22 21 21 20 20 20 19 19 19 19 18 18 18 18 18 18 17 17 17 17 17 17 17 16 16
21 19 18 19 18 17 19 20 21 20 20 20 21 21 22 23 23 23 23 22 22 22 22 22 21 21 20 20 20 19 19 19 19 19 18 18 18 18 18 17 17 17 17 17 16 16 16 16 16
Wind_Speed
1 2 3 2 5 7 5 5 3 4 4 5 8 8 8 6 4 5 1 4 5 4 6 9 12 14 15 15 16 16 16 16 16 16 16 16 16 17 17 17 17 17 17 18 18 19 18 18 18
1 2 2 4 6 5 4 4 5 4 5 5 7 8 8 7 5 6 3 4 6 5 6 9 12 13 14 14 15 15 15 16 16 15 16 16 16 16 17 17 17 17 17 17 18 18 18 17 17
2 1 4 5 5 4 3 2 6 7 5 4 5 6 5 4 4 3 4 7 6 6 6 9 12 13 14 14 14 14 14 15 15 15 16 16 16 16 16 16 17 17 17 17 17 17 17 17 16
2 4 5 7 6 1 4 4 6 6 6 7 6 6 5 4 3 5 8 8 7 5 6 9 12 13 13 14 14 14 14 15 15 15 16 16 16 16 16 16 17 17 17 17 17 16 16 15 15
4 5 7 5 4 3 3 4 3 4 4 6 7 6 4 4 9 11 9 8 7 5 6 9 11 12 13 13 13 14 14 14 15 15 15 15 15 15 16 16 17 17 17 16 15 15 14 14 14
5 5 6 3 3 3 3 4 5 7 7 7 6 5 3 4 8 8 7 6 5 5 5 8 11 11 11 12 13 13 13 14 14 14 14 14 14 15 15 15 15 15 15 15 14 14 13 13 12
5 5 4 3 2 2 3 4 5 6 6 4 5 6 4 4 6 7 7 6 5 5 5 6 7 9 10 11 11 12 12 12 13 13 13 13 14 14 14 14 14 14 14 13 13 13 12 12 12
5 5 4 2 3 2 4 5 5 6 6 6 5 7 6 6 8 8 7 6 5 5 4 5 6 7 7 8 10 10 11 11 12 12 12 12 12 12 12 12 12 12 12 12 12 11 10 10 10
4 5 2 5 6 4 5 5 4 4 6 4 4 5 8 14 12 10 7 5 4 4 3 3 4 5 6 6 7 8 9 9 9 9 10 10 8 9 9 10 10 10 10 10 10 9 8 8 8
5 4 5 5 6 6 6 6 7 6 5 4 7 9 14 15 13 11 10 8 7 5 3 3 3 4 4 5 6 6 6 7 7 7 8 7 7 6 7 7 8 9 9 8 8 7 7 7 6
4 5 3 2 5 7 7 6 5 9 4 7 13 17 17 15 12 11 10 8 7 6 5 4 3 3 3 3 5 4 5 5 5 6 6 6 5 5 5 5 5 6 6 6 6 6 5 5 4
2 1 2 2 5 7 8 7 5 5 6 9 15 19 18 16 13 12 11 9 7 6 6 5 4 3 3 3 3 3 3 3 3 3 4 4 3 3 2 3 3 3 4 4 4 3 3 3 2
2 1 2 4 6 6 7 5 5 3 6 13 16 16 16 15 12 9 8 8 7 7 6 6 5 4 3 3 2 3 3 3 3 3 3 4 3 2 2 1 1 2 2 2 2 2 2 2 2
1 2 3 4 6 4 6 4 4 4 11 14 15 14 14 13 12 9 9 9 9 8 7 6 6 5 4 3 3 3 3 3 3 3 4 4 4 3 2 1 1 0 0 1 1 1 1 1 1
2 5 7 4 4 3 6 3 2 7 12 14 13 13 12 11 11 11 11 10 10 9 8 7 7 5 5 4 4 4 4 4 3 4 4 5 5 4 3 2 1 1 0 1 2 2 2 1 1
5 6 3 1 2 3 6 4 3 9 12 12 12 11 11 10 11 10 10 9 8 8 8 8 8 7 6 4 4 3 4 4 4 4 5 6 6 5 4 2 2 2 1 1 2 1 1 1 1
6 4 2 1 1 3 4 4 4 8 11 11 11 11 10 9 9 9 10 9 9 9 8 8 7 7 7 5 4 3 3 4 4 4 5 6 6 7 5 3 3 2 1 1 1 1 1 0 1
3 3 2 2 2 3 3 4 3 8 10 10 10 9 9 10 11 9 9 9 9 8 8 8 7 7 6 4 3 2 1 2 3 4 5 6 7 7 6 3 3 3 1 1 1 1 1 1 1
6 5 2 3 2 3 4 4 5 8 8 9 9 9 9 10 7 7 8 8 8 8 8 8 8 7 6 4 3 3 2 2 2 4 5 6 6 6 6 3 3 2 2 3 2 2 1 1 1
5 4 1 1 1 2 2 3 3 7 10 9 10 10 10 8 6 8 8 9 9 10 10 9 9 8 7 5 4 3 3 2 2 2 4 5 6 6 6 4 3 3 2 2 2 2 1 1 2
3 5 4 3 3 4 3 4 2 4 5 6 7 8 9 11 10 9 9 9 9 10 11 11 10 8 8 6 4 3 2 1 1 1 2 3 6 7 7 6 5 3 3 4 4 4 4 2 2
4 5 5 4 3 1 2 2 6 4 5 8 9 9 11 11 10 9 10 10 11 11 10 9 9 8 7 7 6 5 4 4 4 2 2 2 4 5 6 6 5 4 4 4 4 4 3 3 3
6 3 4 4 5 2 2 2 7 1 6 11 12 12 12 11 12 12 13 12 11 10 9 8 8 8 7 7 7 6 5 4 2 2 2 3 2 3 4 5 4 4 4 4 4 3 4 4 3
6 7 8 7 5 1 3 4 6 5 9 8 9 11 12 11 11 11 10 9 8 8 8 8 8 7 7 7 7 7 7 6 4 4 4 3 2 2 3 4 4 4 4 4 4 4 5 4 4
6 7 4 4 3 5 3 3 9 8 8 10 10 10 10 10 10 10 10 10 10 10 9 8 8 7 6 7 7 7 7 6 6 5 5 4 3 3 4 4 4 4 5 5 4 4 4 4 4
7 10 9 7 6 4 1 5 8 6 6 6 6 6 7 8 9 10 11 11 11 10 9 8 9 8 7 7 7 6 6 5 4 4 4 4 4 4 3 4 4 4 4 4 3 3 3 3 4
8 5 8 8 4 1 4 7 9 4 3 2 2 4 7 8 9 9 9 10 10 10 10 10 9 7 7 7 6 5 5 5 4 4 4 3 3 3 3 4 4 4 4 3 3 2 3 3 3
7 10 7 7 7 3 4 4 5 6 4 3 2 4 6 6 6 7 8 9 8 8 8 8 8 8 7 6 5 5 4 4 4 3 3 2 2 2 2 2 2 3 3 3 3 2 2 2 2
6 6 6 6 6 7 3 7 7 8 6 5 4 4 5 6 6 6 6 7 7 7 6 6 6 6 5 5 5 5 4 3 3 3 3 2 1 1 1 1 1 2 2 2 2 2 2 2 1
7 9 9 7 4 5 5 7 5 5 5 4 3 3 4 5 6 6 7 7 7 7 6 6 6 6 5 5 4 4 3 3 3 3 2 2 2 1 1 1 1 1 1 1 2 2 1 1 1
Wind_Direction
254 165 140 86 57 52 40 23 61 60 56 57 67 72 75 56 68 113 100 114 103 86 95 100 98 96 94 94 94 93 93 97 100 102 105 109 112 113 114 115 114 113 112 111 111 111 111 110 110
170 157 92 59 72 63 20 15 65 73 125 118 73 66 65 57 60 97 106 113 101 95 97 106 103 100 96 95 95 95 95 97 99 101 104 110 112 113 114 115 114 113 113 112 111 111 111 111 111
175 130 73 63 72 106 111 86 107 99 92 78 73 60 66 81 99 114 128 118 98 93 102 109 104 103 101 99 98 98 97 98 100 102 103 106 110 110 112 113 114 114 112 111 111 112 111 111 112
99 51 52 63 61 78 141 147 130 110 69 58 83 69 63 75 115 121 122 114 104 93 104 110 105 104 103 103 102 101 99 98 99 100 103 104 107 109 111 110 111 112 111 111 110 111 111 111 111
60 68 57 48 36 51 102 138 106 91 80 73 83 84 54 35 98 113 117 114 111 98 106 114 109 106 105 105 104 102 101 101 101 101 102 104 106 108 107 107 107 109 110 110 110 109 109 109 110
56 66 75 67 51 62 90 99 92 88 94 92 86 88 65 101 111 120 115 109 105 101 101 114 113 110 107 106 104 104 103 104 103 103 103 104 105 108 107 107 108 109 109 107 107 105 104 107 111
93 83 100 119 108 109 144 116 107 115 108 106 107 97 105 129 122 116 105 100 94 92 91 95 109 113 111 110 107 106 105 106 105 104 104 103 106 109 108 108 110 110 110 109 109 106 104 108 112
114 96 88 120 141 156 138 118 120 121 110 121 116 132 159 165 132 113 102 94 92 85 83 87 94 101 105 111 112 111 108 108 107 106 106 105 105 108 108 111 111 111 111 109 110 108 107 108 111
89 76 140 186 169 164 144 129 129 104 120 126 117 137 148 140 132 125 122 114 121 121 92 93 97 98 103 112 113 110 109 108 107 107 106 98 90 95 100 109 111 112 111 109 109 109 105 101 102
80 119 207 198 172 153 148 140 144 126 128 106 93 104 128 140 145 149 155 158 160 160 152 123 118 116 117 117 104 97 95 95 94 93 95 93 91 94 99 102 107 107 107 104 102 104 99 94 94
112 167 208 187 156 139 140 144 136 135 175 179 153 146 148 153 158 163 168 170 172 168 167 158 148 142 132 109 113 103 100 99 97 98 102 100 88 77 73 71 71 75 80 75 72 71 77 87 96
119 215 177 161 133 135 148 143 132 169 203 162 152 151 155 163 170 175 175 175 168 168 177 170 163 153 147 129 123 121 118 117 117 120 123 117 100 84 73 69 65 58 58 60 60 67 66 69 94
79 3 23 93 108 122 120 126 135 157 125 130 142 152 164 172 175 177 175 171 169 179 185 179 172 169 161 146 154 147 151 155 158 155 157 151 138 126 115 86 69 55 52 49 47 63 62 58 78
43 61 57 81 102 120 116 102 108 142 133 138 152 164 174 178 176 172 174 178 182 187 188 181 182 181 168 167 174 169 177 178 176 181 181 175 169 163 149 135 108 25 55 58 53 58 58 62 91
65 62 49 59 96 123 106 73 189 151 144 152 165 173 179 183 181 186 187 186 187 189 185 183 186 179 177 184 191 185 187 184 188 196 194 190 186 178 166 155 193 249 201 88 74 61 60 50 87
53 65 69 336 91 125 129 210 198 151 155 167 176 181 186 191 192 193 189 187 185 183 183 188 190 179 185 187 190 191 188 187 199 199 196 201 199 189 176 178 214 232 184 121 105 95 59 38 57
40 99 133 302 153 129 142 215 191 161 167 180 187 189 191 194 199 195 190 188 185 184 183 185 185 178 184 184 182 193 189 189 199 201 203 207 205 198 188 199 215 204 171 158 162 141 157 196 246
175 140 145 206 214 132 172 234 187 174 180 191 193 194 195 202 207 198 189 185 181 182 182 183 185 182 175 165 153 156 175 202 202 201 209 206 203 199 191 202 211 189 164 183 182 167 171 215 234
146 137 162 235 230 155 200 229 206 181 187 196 194 196 204 215 206 191 186 182 176 181 185 186 186 184 167 158 164 168 194 205 213 211 213 210 199 193 189 202 198 188 191 202 195 176 193 217 159
134 133 164 315 341 160 201 263 226 196 204 202 199 201 205 207 198 193 186 185 185 190 189 191 194 188 181 180 169 166 163 185 200 213 211 209 199 197 201 199 201 197 197 205 200 189 188 213 168
163 172 181 179 38 48 93 342 268 227 214 218 213 206 205 206 203 196 192 193 190 194 194 197 197 191 189 179 150 126 101 80 142 205 218 218 203 202 205 201 201 203 201 209 208 197 194 210 209
213 208 173 153 110 335 90 260 277 244 237 229 224 213 211 208 198 194 194 196 199 200 195 194 189 189 188 176 177 178 187 204 215 206 211 226 210 206 207 206 202 204 207 214 217 203 200 192 216
191 148 128 118 124 74 36 146 284 281 246 244 230 220 214 204 197 197 200 200 201 196 190 189 184 189 187 184 187 188 202 208 204 194 211 233 233 222 212 203 201 207 214 219 217 204 200 201 206
139 79 60 53 76 80 233 168 272 232 225 240 231 217 210 204 200 200 197 189 187 186 183 182 184 193 187 185 188 193 200 199 199 209 217 234 239 236 222 209 206 212 218 222 220 216 209 210 215
112 99 56 26 33 242 257 192 248 248 235 231 234 221 206 198 196 193 184 187 186 185 187 185 184 194 192 191 196 200 201 197 205 211 215 222 229 237 236 221 213 217 223 221 213 214 220 214 218
164 140 154 174 198 255 277 229 254 261 263 254 236 214 193 191 193 191 186 186 186 184 182 185 190 195 192 195 201 198 195 197 207 208 209 217 224 233 235 222 221 226 227 223 209 217 223 223 229
136 161 153 129 142 121 274 286 302 293 309 304 237 185 189 189 186 184 176 176 176 176 181 184 188 191 190 193 191 187 190 190 195 200 203 217 228 237 238 231 221 226 226 222 202 204 212 214 229
140 142 111 122 141 193 280 278 259 276 276 285 247 201 194 180 171 163 163 170 173 174 176 175 178 187 186 179 184 187 186 192 190 190 197 204 218 231 235 226 220 219 212 206 192 195 206 203 230
115 105 110 116 143 150 200 263 231 230 233 231 237 208 185 167 156 154 155 158 153 153 161 169 177 176 176 179 173 172 179 175 174 184 195 203 203 204 225 229 217 218 206 196 186 196 202 209 246
149 156 146 148 179 162 162 257 273 234 235 214 204 176 160 147 139 138 141 140 143 151 161 170 175 176 175 167 162 166 163 157 165 175 179 172 175 191 190 170 170 205 188 168 174 185 184 191 223
Height
1482 1482 1483 1485 1489 1504 1512 1507 1502 1502 1504 1505 1504 1505 1507 1511 1515 1521 1519 1518 1519 1519 1519 1519 1519 1520 1520 1520 1520 1520 1521 1521 1522 1522 1523 1524 1525 1527 1528 1529 1531 1533 1534 1536 1537 1539 1540 1542 1544
1483 1483 1486 1487 1501 1520 1517 1507 1505 1504 1505 1506 1507 1508 1510 1513 1515 1517 1518 1520 1521 1521 1522 1522 1522 1523 1523 1523 1524 1524 1524 1525 1525 1526 1526 1527 1528 1529 1531 1532 1534 1535 1537 1538 1540 1542 1543 1545 1547
1485 1485 1488 1493 1508 1519 1516 1507 1506 1506 1506 1507 1509 1511 1514 1517 1518 1519 1521 1522 1523 1523 1524 1525 1526 1526 1526 1526 1527 1527 1528 1528 1529 1529 1530 1530 1531 1533 1534 1535 1536 1538 1539 1541 1543 1544 1546 1548 1549
1486 1488 1491 1502 1511 1509 1507 1506 1506 1506 1508 1509 1511 1515 1518 1521 1521 1522 1523 1524 1525 1526 1527 1528 1529 1529 1529 1530 1530 1531 1531 1531 1532 1532 1533 1534 1535 1536 1537 1538 1539 1540 1542 1544 1545 1547 1549 1551 1552
1488 1490 1501 1513 1511 1507 1506 1506 1507 1508 1510 1512 1513 1517 1521 1523 1524 1525 1526 1527 1528 1529 1530 1531 1532 1532 1533 1533 1533 1534 1534 1535 1535 1536 1537 1538 1538 1539 1540 1541 1542 1544 1545 1547 1549 1550 1552 1554 1555
1490 1494 1514 1520 1513 1508 1508 1508 1509 1511 1513 1514 1516 1519 1524 1525 1526 1527 1528 1530 1531 1532 1533 1534 1535 1535 1536 1536 1537 1537 1538 1538 1539 1539 1540 1541 1541 1542 1543 1545 1546 1547 1549 1550 1551 1553 1555 1556 1558
1493 1502 1514 1515 1514 1511 1509 1510 1511 1513 1514 1516 1517 1521 1525 1527 1529 1530 1531 1532 1533 1535 1536 1536 1537 1538 1539 1540 1540 1541 1541 1542 1542 1543 1543 1544 1544 1545 1547 1548 1549 1550 1552 1553 1555 1556 1557 1559 1560
1493 1501 1512 1514 1514 1512 1509 1510 1512 1514 1516 1518 1519 1521 1524 1527 1529 1531 1533 1534 1536 1537 1538 1539 1540 1541 1542 1542 1543 1544 1544 1545 1545 1546 1546 1547 1548 1549 1550 1551 1552 1553 1555 1556 1557 1559 1560 1561 1562
1494 1507 1516 1512 1512 1510 1509 1511 1514 1515 1516 1518 1519 1521 1524 1527 1530 1532 1534 1536 1537 1539 1540 1541 1542 1543 1544 1545 1546 1546 1547 1548 1548 1549 1550 1550 1551 1552 1552 1553 1555 1556 1558 1559 1560 1561 1563 1564 1564
1496 1510 1507 1502 1503 1505 1508 1510 1513 1516 1517 1519 1520 1522 1525 1528 1530 1532 1534 1536 1538 1540 1541 1543 1544 1545 1546 1547 1548 1549 1549 1550 1551 1552 1553 1554 1554 1555 1555 1556 1558 1559 1560 1561 1563 1564 1565 1566 1567
1496 1503 1500 1500 1501 1503 1507 1510 1512 1515 1518 1517 1518 1521 1525 1528 1531 1533 1535 1537 1539 1541 1543 1544 1546 1547 1548 1549 1550 1551 1552 1553 1554 1555 1555 1556 1557 1558 1558 1559 1560 1562 1563 1564 1565 1566 1567 1568 1568
1498 1498 1498 1499 1501 1504 1507 1510 1513 1514 1514 1516 1518 1521 1524 1528 1531 1533 1536 1538 1540 1542 1544 1545 1547 1549 1550 1551 1552 1553 1554 1555 1556 1557 1558 1558 1559 1560 1561 1562 1563 1564 1565 1566 1567 1568 1569 1569 1570
1498 1499 1499 1500 1502 1505 1508 1510 1512 1515 1515 1517 1520 1523 1525 1528 1531 1535 1538 1540 1542 1543 1545 1547 1549 1550 1552 1553 1554 1555 1556 1557 1558 1559 1560 1560 1561 1562 1563 1564 1565 1566 1567 1568 1569 1569 1570 1570 1571
1499 1499 1501 1502 1504 1507 1510 1512 1514 1515 1516 1519 1522 1524 1527 1529 1532 1535 1538 1540 1542 1544 1546 1548 1550 1552 1553 1554 1555 1557 1558 1559 1560 1560 1561 1562 1563 1564 1565 1566 1566 1567 1568 1569 1570 1570 1571 1571 1571
1499 1502 1504 1505 1506 1509 1511 1516 1515 1515 1517 1520 1523 1525 1528 1530 1533 1535 1537 1540 1542 1545 1547 1549 1551 1553 1554 1555 1557 1558 1559 1560 1561 1562 1563 1564 1564 1565 1566 1567 1567 1568 1569 1570 1570 1571 1571 1571 1572
1501 1509 1516 1510 1508 1509 1515 1523 1515 1516 1518 1521 1523 1526 1528 1531 1533 1536 1538 1541 1543 1545 1547 1550 1551 1553 1555 1556 1557 1559 1560 1561 1562 1563 1564 1565 1565 1566 1567 1567 1568 1569 1569 1570 1570 1571 1571 1571 1571
1513 1520 1519 1514 1509 1510 1514 1519 1515 1516 1518 1521 1523 1525 1528 1530 1533 1535 1538 1540 1543 1546 1548 1550 1551 1553 1555 1556 1558 1559 1560 1561 1562 1563 1564 1565 1566 1566 1567 1568 1568 1569 1569 1570 1570 1570 1571 1571 1571
1520 1520 1520 1518 1511 1511 1516 1517 1514 1516 1518 1519 1522 1525 1527 1529 1531 1534 1537 1539 1542 1545 1547 1549 1551 1553 1554 1556 1558 1559 1560 1561 1562 1563 1564 1565 1566 1567 1567 1568 1568 1569 1569 1569 1570 1570 1571 1571 1571
1510 1515 1519 1516 1509 1512 1516 1516 1514 1515 1517 1518 1520 1523 1525 1526 1530 1533 1536 1538 1541 1543 1545 1547 1549 1552 1553 1555 1556 1558 1559 1560 1561 1562 1563 1564 1565 1566 1566 1567 1568 1568 1568 1569 1569 1569 1570 1570 1570
1509 1515 1518 1515 1510 1513 1517 1517 1514 1514 1514 1515 1517 1520 1522 1525 1528 1530 1533 1536 1538 1540 1543 1546 1548 1550 1552 1554 1556 1557 1559 1560 1561 1562 1562 1563 1564 1565 1566 1566 1567 1567 1567 1567 1568 1568 1568 1568 1569
1510 1514 1515 1517 1514 1514 1518 1523 1517 1513 1514 1515 1517 1518 1519 1521 1524 1527 1530 1532 1535 1538 1541 1544 1546 1549 1551 1553 1555 1556 1557 1558 1559 1560 1561 1562 1563 1564 1564 1565 1565 1565 1566 1566 1566 1567 1567 1567 1567
1513 1506 1508 1512 1521 1529 1523 1538 1522 1515 1514 1513 1513 1514 1516 1518 1521 1524 1526 1529 1532 1535 1539 1542 1545 1547 1549 1551 1553 1554 1555 1556 1557 1559 1560 1561 1561 1562 1562 1563 1563 1563 1564 1564 1564 1564 1565 1565 1565
1505 1502 1507 1512 1521 1531 1529 1536 1529 1517 1517 1510 1508 1509 1511 1513 1517 1519 1522 1526 1530 1534 1537 1540 1543 1545 1547 1549 1551 1552 1553 1554 1556 1557 1558 1559 1559 1560 1560 1560 1560 1561 1561 1561 1562 1562 1562 1562 1562
1499 1507 1515 1523 1531 1543 1533 1537 1533 1521 1511 1504 1502 1503 1506 1509 1513 1516 1520 1523 1527 1531 1534 1538 1540 1542 1545 1546 1548 1549 1551 1552 1553 1554 1555 1556 1557 1557 1557 1558 1558 1558 1558 1558 1559 1559 1559 1559 1559
1501 1520 1540 1543 1552 1548 1533 1534 1529 1507 1501 1498 1497 1499 1502 1505 1509 1512 1516 1519 1523 1527 1531 1535 1537 1539 1541 1543 1545 1547 1548 1550 1551 1551 1552 1553 1554 1554 1554 1555 1555 1555 1555 1556 1556 1556 1556 1556 1556
1503 1513 1538 1549 1552 1547 1535 1535 1516 1499 1496 1495 1495 1496 1498 1502 1505 1508 1512 1516 1520 1524 1528 1531 1534 1536 1538 1540 1542 1544 1546 1547 1548 1549 1549 1550 1550 1550 1551 1551 1551 1551 1552 1552 1552 1553 1553 1553 1553
1505 1512 1513 1533 1540 1544 1539 1527 1510 1496 1495 1493 1493 1494 1495 1498 1502 1505 1509 1513 1517 1521 1524 1528 1530 1533 1535 1537 1539 1541 1542 1544 1545 1546 1546 1546 1547 1547 1547 1546 1547 1548 1548 1549 1549 1550 1550 1550 1550
1493 1504 1521 1533 1548 1549 1537 1530 1522 1502 1497 1494 1493 1493 1494 1497 1500 1504 1507 1511 1515 1519 1522 1526 1528 1530 1532 1534 1535 1538 1539 1541 1542 1542 1542 1543 1544 1544 1544 1544 1544 1545 1545 1546 1546 1547 1548 1548 1548
1499 1506 1516 1529 1531 1546 1546 1533 1502 1498 1494 1494 1493 1493 1494 1497 1500 1503 1507 1511 1514 1518 1521 1523 1526 1528 1529 1531 1533 1535 1536 1537 1538 1539 1539 1541 1542 1542 1542 1542 1542 1542 1543 1544 1544 1545 1545 1546 1546
1486 1497 1508 1522 1532 1535 1537 1527 1493 1492 1491 1491 1492 1493 1494 1496 1500 1503 1507 1511 1514 1516 1519 1521 1523 1525 1527 1529 1530 1532 1533 1535 1535 1536 1537 1538 1540 1540 1540 1540 1540 1540 1540 1541 1542 1543 1543 1544 1543